Weather History for EINN - February, 2013

Change the Weather History Date:

Monday, February 4, 2013

  Actual Average Record
Temperature  
Mean Temperature 44 °F -  
Max Temperature 50 °F 48 °F - ()
Min Temperature 37 °F 37 °F - ()
Degree Days  
Heating Degree Days 22    
Moisture  
Dew Point 38 °F    
Average Humidity 79    
Maximum Humidity 94    
Minimum Humidity 66    
Precipitation  
Precipitation 0.08 in 0.09 in - ()
Sea Level Pressure  
Sea Level Pressure 29.97 in    
Wind  
Wind Speed 22 mph ()    
Max Wind Speed 33 mph    
Max Gust Speed 51 mph    
Visibility 6.1 miles    
Events Rain    
T = Trace of Precipitation, MM = Missing Value Source: Averaged Metar Reports

Daily Weather History Graph

Daily Weather History Graph

Search for Another Location

Airport or City:

Trip Planner

Search our weather history database for the weather conditions in past years. The results will help you decide how hot, cold, wet, or windy it might be!

Date:

Astronomy

Feb. 04, 2013 Rise Set
Actual Time 8:12 AM GMT 5:27 PM GMT
Civil Twilight 7:35 AM GMT 6:04 PM GMT
Nautical Twilight 6:54 AM GMT 6:45 PM GMT
Astronomical Twilight 6:14 AM GMT 7:25 PM GMT
Moon 2:42 AM GMT (2/4) 11:28 AM GMT (2/4)
Length of Visible Light 10h 28m
Length of Day
9h 14m
Last Quarter, 40% of the Moon is Illuminated
Feb 4
Last Quarter
Feb 10
New
Feb 17
First Quarter
Feb 25
Full
Mar 4
Last Quarter

Hourly Weather History & Observations

Time (GMT) Temp. Windchill Dew Point Humidity Pressure Visibility Wind Dir Wind Speed Gust Speed Precip Events Conditions
12:00 AM 50 °F - 48 °F 92% 29.99 in 7 mi West 26.8 mph - - Rain Light Drizzle
12:00 AM 50.0 °F - 48.2 °F 94% 29.98 in 6.2 mi West 26.5 mph - N/A   Mostly Cloudy
12:30 AM 50.0 °F - 44.6 °F 82% 29.98 in 6.2 mi West 24.2 mph - N/A   Mostly Cloudy
1:00 AM 48.2 °F - 42.8 °F 82% 30.01 in 6.2 mi West 23.0 mph - N/A   Mostly Cloudy
1:30 AM 48.2 °F - 42.8 °F 82% 30.01 in 6.2 mi West 21.9 mph - N/A   Mostly Cloudy
2:00 AM 46.4 °F 39.0 °F 37.4 °F 71% 30.01 in 6.2 mi West 19.6 mph - N/A   Mostly Cloudy
2:30 AM 46.4 °F 39.5 °F 39.2 °F 76% 30.04 in 6.2 mi West 17.3 mph - N/A   Mostly Cloudy
3:00 AM 46.4 °F 39.5 °F 39.2 °F 76% 30.04 in 6.2 mi West 17.3 mph - N/A   Mostly Cloudy
3:30 AM 46.4 °F 39.2 °F 41.0 °F 81% 30.04 in 6.2 mi West 18.4 mph - N/A   Mostly Cloudy
4:00 AM 46.4 °F 38.5 °F 39.2 °F 76% 30.04 in 6.2 mi West 21.9 mph - N/A   Mostly Cloudy
4:30 AM 46.4 °F 39.2 °F 35.6 °F 66% 30.04 in 6.2 mi West 18.4 mph - N/A   Mostly Cloudy
5:00 AM 46.4 °F 38.3 °F 35.6 °F 66% 30.04 in 6.2 mi West 23.0 mph - N/A   Mostly Cloudy
5:30 AM 46.4 °F 39.8 °F 37.4 °F 71% 30.04 in 6.2 mi West 16.1 mph - N/A Rain Light Rain Showers
6:00 AM 45 °F - 39 °F 72% 30.05 in 9 mi West 17.9 mph - - Rain Light Rain Showers
6:00 AM 44.6 °F 36.9 °F 39.2 °F 81% 30.04 in 6.2 mi West 18.4 mph - N/A   Mostly Cloudy
6:30 AM 44.6 °F 37.8 °F 39.2 °F 81% 30.04 in 6.2 mi West 15.0 mph - N/A   Mostly Cloudy
7:00 AM 44.6 °F 35.3 °F 37.4 °F 76% 30.04 in 6.2 mi West 26.5 mph - N/A   Mostly Cloudy
7:30 AM 44.6 °F 35.1 °F 39.2 °F 81% 30.04 in 5.0 mi West 27.6 mph 39.1 mph N/A Rain Light Rain Showers
8:00 AM 42.8 °F 33.8 °F 37.4 °F 81% 30.04 in 5.6 mi West 21.9 mph - N/A Rain Light Rain Showers
8:30 AM 44.6 °F 36.4 °F 37.4 °F 76% 30.06 in 6.2 mi West 20.7 mph - N/A   Mostly Cloudy
9:00 AM 42.8 °F 33.8 °F 37.4 °F 81% 30.06 in 6.2 mi West 21.9 mph - N/A   Scattered Clouds
9:30 AM 44.6 °F 36.6 °F 39.2 °F 81% 30.06 in 5.0 mi West 19.6 mph 33.4 mph N/A Rain Light Rain Showers
11:00 AM 42.8 °F 32.5 °F 37.4 °F 81% 30.06 in 6.2 mi West 28.8 mph 43.7 mph N/A Rain Light Rain Showers
11:30 AM 46.4 °F 39.2 °F 39.2 °F 76% 30.04 in 6.2 mi West 18.4 mph - N/A   Partly Cloudy
12:00 PM 44 °F - 40 °F 80% 30.06 in 6 mi West 26.8 mph - - Rain Light Rain Showers
12:00 PM 44.6 °F 35.1 °F 39.2 °F 81% 30.04 in 5.6 mi West 27.6 mph - N/A Rain Light Rain Showers
12:30 PM 44.6 °F 35.7 °F 39.2 °F 81% 30.04 in 6.2 mi WSW 24.2 mph - N/A   Partly Cloudy
1:00 PM 44.6 °F 35.1 °F 41.0 °F 87% 30.04 in 5.6 mi West 27.6 mph 47.2 mph N/A Rain Light Rain Showers
1:30 PM 46.4 °F 37.9 °F 41.0 °F 81% 30.01 in 5.6 mi West 25.3 mph - N/A Rain Light Rain Showers
2:00 PM 46.4 °F 37.5 °F 37.4 °F 71% 30.01 in 6.2 mi West 27.6 mph 40.3 mph N/A   Scattered Clouds
2:30 PM 46.4 °F 37.7 °F 37.4 °F 71% 29.98 in 5.0 mi West 26.5 mph 38.0 mph N/A Rain Light Rain Showers
3:00 PM 46.4 °F 38.7 °F 39.2 °F 76% 29.98 in 6.2 mi West 20.7 mph 34.5 mph N/A   Mostly Cloudy
3:30 PM 46.4 °F 37.9 °F 37.4 °F 71% 29.95 in 6.2 mi WSW 25.3 mph - N/A   Scattered Clouds
4:00 PM 44.6 °F 35.1 °F 39.2 °F 81% 29.95 in 6.2 mi WSW 27.6 mph - N/A   Mostly Cloudy
4:30 PM 44.6 °F 35.3 °F 39.2 °F 81% 29.95 in 3.7 mi WSW 26.5 mph - N/A Rain Light Rain Showers
5:00 PM 42.8 °F - 37.4 °F 81% 29.92 in 5.6 mi WSW 227.9 mph - N/A   Mostly Cloudy
5:30 PM 44.6 °F 35.7 °F 37.4 °F 76% 29.89 in 6.2 mi WSW 24.2 mph 35.7 mph N/A   Mostly Cloudy
6:00 PM 44 °F - 39 °F 75% 29.90 in 7 mi West 26.8 mph - - Rain Light Rain Showers
6:00 PM 42.8 °F 32.7 °F 39.2 °F 87% 29.89 in 6.2 mi West 27.6 mph - N/A Rain Light Rain Showers
6:30 PM 44.6 °F 36.1 °F 39.2 °F 81% 29.89 in 6.2 mi West 21.9 mph - N/A   Mostly Cloudy
7:00 PM 42.8 °F 33.3 °F 37.4 °F 81% 29.86 in 6.2 mi West 24.2 mph - N/A   Mostly Cloudy
7:30 PM 39.2 °F 27.6 °F 35.6 °F 87% 29.89 in 5.6 mi West 28.8 mph - N/A Rain Light Rain Showers
8:00 PM 41.0 °F 30.7 °F 37.4 °F 87% 29.86 in 6.2 mi West 25.3 mph - N/A Rain Light Rain Showers
8:30 PM 39.2 °F 27.4 °F 33.8 °F 81% 29.86 in 6.2 mi West 29.9 mph 41.4 mph N/A   Mostly Cloudy
9:00 PM 39.2 °F 26.8 °F 33.8 °F 81% 29.86 in 6.2 mi West 33.4 mph 46.0 mph N/A Rain Light Rain Showers
9:30 PM 37.4 °F 25.4 °F 33.8 °F 87% 29.83 in 6.2 mi West 27.6 mph 42.6 mph N/A   Scattered Clouds
10:00 PM 37.4 °F 24.6 °F 32.0 °F 81% 29.83 in 6.2 mi West 32.2 mph 50.6 mph N/A   Mostly Cloudy
10:30 PM 39.2 °F 28.0 °F 30.2 °F 70% 29.83 in 6.2 mi West 26.5 mph - N/A   Mostly Cloudy
11:00 PM 39.2 °F 27.8 °F 32.0 °F 75% 29.83 in 6.2 mi West 27.6 mph 44.9 mph N/A   Mostly Cloudy
11:30 PM 37.4 °F 25.6 °F 30.2 °F 75% 29.80 in 6.2 mi West 26.5 mph 38.0 mph N/A   Scattered Clouds